Flight Track Log - Related Links

Times and Time Zones

All times are in EDT time to prevent confusion due to time zone crossing. See the SKW6492 flight status page for this flight to view local times or setup timezone preferences in your user account.

Time Position Orientation Groundspeed Altitude Reporting Facility
EDT Latitude Longitude Course Direction KTS MPH feet Rate Location/Type
04:42PM 30.3419 -97.7569 291° West 244 281 5,800  Level Houston Center
04:43PM 30.4108 -97.7972 333° Northwest 268 308 8,700 2,565 Climbing Houston Center
04:44PM 30.4981 -97.8948 293° West  Level FlightAware Approximate
04:44PM 30.4428 -97.8794 294° West 279 321 11,100  Level Houston Center
04:45PM 30.5405 -98.0213 291° West  Level FlightAware Approximate
04:45PM 30.4717 -97.9689 291° West 291 335 12,700  Level Houston Center
04:46PM 30.5827 -98.1478 291° West  Level FlightAware Approximate
04:46PM 30.5158 -98.0664 298° West 329 379 14,800  Level Houston Center
04:47PM 30.6248 -98.2745 291° West  Level FlightAware Approximate
04:47PM 30.6044 -98.1531 320° Northwest 352 405 16,900  Level Houston Center
04:48PM 30.6892 -98.2281 323° Northwest 371 427 18,700 1,742 Climbing Houston Center
04:49PM 30.7764 -98.3028 324° Northwest 380 437 20,500 1,645 Climbing Houston Center
04:50PM 30.8631 -98.3819 322° Northwest 388 447 22,100 1,536 Climbing Houston Center
04:51PM 30.9528 -98.4561 325° Northwest 390 449 23,700 1,306 Climbing Houston Center
04:52PM 31.0681 -98.4989 342° North 426 490 24,800 1,255 Climbing Houston Center
04:53PM 31.1453 -98.5736 320° Northwest 397 457 26,000 1,278 Climbing Fort Worth Center
04:54PM 31.2469 -98.6453 329° Northwest 410 472 27,100 1,026 Climbing Fort Worth Center
04:54PM 31.2619 -98.6494 347° North 426 490 27,300 1,215 Climbing Houston Center
04:55PM 31.3867 -98.7256 332° Northwest 429 494 28,700 1,096 Climbing Houston Center
04:56PM 31.4606 -98.7722 332° Northwest 421 484 29,200 1,069 Climbing Fort Worth Center
04:57PM 31.5622 -98.8372 331° Northwest 421 484 30,500 958 Climbing Fort Worth Center
04:58PM 31.6700 -98.9022 333° Northwest 427 491 31,100 700 Climbing Fort Worth Center
04:59PM 31.7758 -98.9628 334° Northwest 427 491 31,900 1,300 Climbing Fort Worth Center
05:00PM 31.8772 -99.0281 331° Northwest 427 491 33,700 1,250 Climbing Fort Worth Center
05:01PM 31.9767 -99.0911 332° Northwest 421 484 34,400 645 Climbing Fort Worth Center
05:02PM 32.0800 -99.1542 333° Northwest 415 478 35,000 700 Climbing Fort Worth Center
05:03PM 32.1817 -99.2150 333° Northwest 410 472 35,800 1,261 Climbing Fort Worth Center
05:04PM 32.2808 -99.2736 333° Northwest 410 472 37,500 1,091 Climbing Fort Worth Center
05:05PM 32.3739 -99.3319 332° Northwest 393 452 38,000 250 Climbing Fort Worth Center
05:06PM 32.4711 -99.3908 333° Northwest 388 447 38,000  Level Fort Worth Center
05:07PM 32.5683 -99.4544 331° Northwest 388 447 38,000  Level Fort Worth Center
05:08PM 32.6694 -99.5186 332° Northwest 388 447 38,000  Level Fort Worth Center
05:09PM 32.7750 -99.5803 334° Northwest 401 461 38,000  Level Fort Worth Center
05:10PM 32.8719 -99.6419 332° Northwest 417 480 38,000  Level Fort Worth Center
05:11PM 32.9772 -99.7089 332° Northwest 428 493 38,000  Level Fort Worth Center
05:12PM 33.0867 -99.7789 332° Northwest 433 498 38,000  Level Fort Worth Center
05:13PM 33.1958 -99.8511 331° Northwest 433 498 38,000  Level Fort Worth Center
05:14PM 33.3050 -99.9214 332° Northwest 438 504 38,000  Level Fort Worth Center
05:15PM 33.4164 -99.9942 331° Northwest 443 510 38,000  Level Fort Worth Center
05:16PM 33.5275 -100.0622 333° Northwest 449 517 38,000  Level Fort Worth Center
05:17PM 33.6408 -100.1356 332° Northwest 449 517 38,000  Level Fort Worth Center
05:18PM 33.7497 -100.2064 332° Northwest 449 517 38,000  Level Fort Worth Center
05:19PM 33.8567 -100.2772 331° Northwest 449 517 38,000  Level Fort Worth Center
05:20PM 33.9656 -100.3486 331° Northwest 444 511 38,000  Level Fort Worth Center
05:21PM 34.0808 -100.4225 332° Northwest 439 505 38,000  Level Fort Worth Center
05:22PM 34.1875 -100.4917 332° Northwest 429 494 38,000  Level Fort Worth Center
05:24PM 34.4189 -100.6431 332° Northwest 437 503 38,000  Level Albuquerque Center
05:25PM 34.5242 -100.7125 331° Northwest 433 498 38,000  Level Albuquerque Center
05:26PM 34.6294 -100.7831 331° Northwest 434 499 38,000  Level Albuquerque Center
05:27PM 34.7564 -100.8669 332° Northwest 434 499 38,000  Level Albuquerque Center
05:28PM 34.8622 -100.9372 331° Northwest 433 498 38,000  Level Albuquerque Center
05:29PM 34.9669 -101.0072 331° Northwest 431 496 38,000  Level Albuquerque Center
05:30PM 35.0708 -101.0769 331° Northwest 429 494 38,000  Level Albuquerque Center
05:31PM 35.1761 -101.1467 332° Northwest 431 496 38,000  Level Albuquerque Center
05:32PM 35.3014 -101.2311 331° Northwest 434 499 38,000  Level Albuquerque Center
05:33PM 35.4056 -101.3006 331° Northwest 432 497 38,000  Level Albuquerque Center
05:34PM 35.5106 -101.3731 331° Northwest 437 503 38,000  Level Albuquerque Center
05:35PM 35.6178 -101.4456 331° Northwest 441 507 38,000  Level Albuquerque Center
05:36PM 35.7269 -101.5200 331° Northwest 448 516 38,000  Level Albuquerque Center
05:37PM 35.8594 -101.6100 331° Northwest 454 522 38,000  Level Albuquerque Center
05:38PM 35.9703 -101.6875 330° Northwest 457 526 38,000  Level Albuquerque Center
05:39PM 36.0819 -101.7658 330° Northwest 460 529 38,000  Level Albuquerque Center
05:40PM 36.1939 -101.8419 331° Northwest 462 532 38,000  Level Albuquerque Center
05:42PM 36.3050 -101.9197 331° Northwest 460 529 38,000  Level Albuquerque Center
05:43PM 36.4167 -101.9981 331° Northwest 460 529 38,000  Level Albuquerque Center
05:44PM 36.5283 -102.0747 331° Northwest 461 531 38,000 -823 Level Albuquerque Center
05:45PM 36.6569 -102.1644 331° Northwest 462 532 36,300 -968 Descending Albuquerque Center
05:46PM 36.7747 -102.2472 331° Northwest 464 534 36,000 -146 Descending Albuquerque Center
05:47PM 36.8836 -102.3242 331° Northwest 444 511 36,000  Level Albuquerque Center
05:48PM 36.9850 -102.3958 331° Northwest 436 502 36,000  Level Albuquerque Center
05:49PM 37.1008 -102.4786 330° Northwest 429 494 36,000  Level Albuquerque Center
05:50PM 37.2053 -102.5536 330° Northwest 429 494 36,000  Level Albuquerque Center
05:51PM 37.3058 -102.6256 330° Northwest 433 498 36,000 57 Level Albuquerque Center
05:52PM 37.3886 -102.6847 330° Northwest 433 498 36,100  Climbing Denver Center
05:53PM 37.4892 -102.7561 331° Northwest 434 499 36,000 -48 Descending Denver Center
05:54PM 37.6147 -102.8103 341° North 429 494 36,000  Level Denver Center
05:55PM 37.7264 -102.8450 346° North 431 496 36,000  Level Denver Center
05:56PM 37.8556 -102.8844 346° North 429 494 36,000  Level Denver Center
05:57PM 37.9658 -102.9197 346° North 429 494 36,000  Level Denver Center
05:58PM 38.0925 -102.9603 346° North 428 493 36,000  Level Denver Center
05:59PM 38.1936 -103.0272 333° Northwest 429 494 36,000 -242 Level Denver Center
06:00PM 38.3006 -103.1325 322° Northwest 431 496 35,500 -774 Descending Denver Center
06:01PM 38.3914 -103.2253 321° Northwest 438 504 34,400 -1,015 Descending Denver Center
06:02PM 38.5003 -103.3356 322° Northwest 445 512 33,200 -1,095 Descending Denver Center
06:03PM 38.6089 -103.4467 321° Northwest 448 516 31,900 -1,440 Descending Denver Center
06:04PM 38.7172 -103.5581 321° Northwest 449 517 30,200 -1,790 Descending Denver Center
06:05PM 38.8033 -103.6469 321° Northwest 429 494 28,200 -2,081 Descending Denver Center
06:06PM 38.9003 -103.7469 321° Northwest 408 470 25,900 -1,887 Descending Denver Center
06:07PM 38.9778 -103.8286 321° Northwest 389 448 24,300 -1,645 Descending Denver Center
06:08PM 39.0619 -103.9139 322° Northwest 358 412 22,500 -1,597 Descending Denver Center
06:09PM 39.1358 -103.9931 320° Northwest 359 413 21,000 -1,597 Descending Denver Center
06:10PM 39.2167 -104.0764 321° Northwest 346 398 19,200 -1,500 Descending Denver Center
06:11PM 39.2722 -104.1803 305° West 362 417 17,900 -1,500 Descending Denver Center
06:12PM 39.3147 -104.3192 292° West 388 447 16,100 -2,032 Descending Denver Center
06:13PM 39.3592 -104.4378 296° West 370 426 13,700 -1,935 Descending Denver Center
06:14PM 39.4253 -104.5331 312° West 338 389 12,100 -1,317 Descending Denver Center
06:15PM 39.4958 -104.5892 328° Northwest 298 343 11,000 -634 Descending Denver Center
06:17PM 39.5606 -104.6314 333° Northwest 261 300 10,800 -823 Descending Denver Center
06:18PM 39.6275 -104.6444 351° North 231 266 9,300 -1,210 Descending Denver Center
06:19PM 39.6894 -104.6431 North 225 259 8,300 -968 Descending Denver Center

Login

Don't have an account? Register now (free) for customized features, flight alerts, and more!